Notices

What's New in latest Release from April 7th, 2021:

- Updated Glossary, including Speed of Maximum Gust, and Total Hourly Precipitation

- Updated national and regional climate services offices contacts and prices information

- Addition of station inventory lists for 1981-2010, 1971-2000, and 1961-1990 Normals.

If you haven't already, please take our survey and provide feedback about our website: https://eccc.sondage-survey.ca/f/LanguageSelection.aspx?s=442ca660-fcf1-47c0-95a9-59707d6fd709

Hourly Data Report for September 23, 2019

TORONTO CITY
ONTARIO
Current Station Operator: ECCC - MSC

43°40'00.000" N
79°24'00.000" W
112.50 m
6158355
71508
XTO

Download Data

Hourly Data (September 2019)
Hourly Data Report for September 23, 2019
TIME
LST
Temp Definition
°C
Dew Point Definition
°C
Rel Hum Definition
%
Precip. Amount Definition
mm

Wind Dir Definition
10's deg

Wind Spd Definition
km/h
Visibility Definition
km
Stn Press Definition
kPa
Hmdx Definition


Wind Chill Definition


Weather Definition


00:00 23.6 15.5 60 0.0       99.55 28   LegendNANA
01:00 23.4 15.3 60 0.0       99.50 28   LegendNANA
02:00 23.2 15.4 61 0.0       99.47 27   LegendNANA
03:00 23.6 15.2 59 0.0       99.38 28   LegendNANA
04:00 22.7 16.0 66 0.0       99.35 27   LegendNANA
05:00 21.9 16.6 72 0.0       99.29 27   LegendNANA
06:00 22.2 16.7 71 0.0       99.28 27   LegendNANA
07:00 23.1 16.8 68 0.0       99.29 28   LegendNANA
08:00 23.5 16.9 67 0.0       99.31 29   LegendNANA
09:00 23.6 16.6 65 0.0       99.36 29   LegendNANA
10:00 24.8 15.1 55 0.0       99.39 29   LegendNANA
11:00 24.1 15.6 59 0.0       99.38 28   LegendNANA
12:00 23.6 14.0 55 0.0       99.41 27   LegendNANA
13:00 23.9 13.9 54 0.0       99.37 27   LegendNANA
14:00 24.1 11.9 46 0.0       99.35 26   LegendNANA
15:00 23.7 11.1 45 0.0       99.35 26   LegendNANA
16:00 22.3 12.3 53 0.0       99.37 25   LegendNANA
17:00 21.9 11.6 52 0.0       99.40     LegendNANA
18:00 20.8 10.1 50 0.0       99.46     LegendNANA
19:00 20.0 8.8 48 0.0       99.54     LegendNANA
20:00 19.0 10.5 58 0.0       99.59     LegendNANA
21:00 17.8 11.2 65 0.0       99.62     LegendNANA
22:00 17.3 11.5 69 0.0       99.61     LegendNANA
23:00 16.9 11.4 70 0.0       99.60     LegendNANA

Notes on Data Quality.

Legend

  • E = Estimated
  • M = Missing
  • NA = Not Available*
  • [empty] = Indicates an unobserved value
Date modified: